Orbital Elements at Epoch 2459200.5 (2020-Dec-17.0) TDB
Reference: JPL 18 (heliocentric ecliptic J2000)
Element | Value | Uncertainty (1-sigma) | Units |
e | .1534149028174936 | 2.8113e-08 | |
a | 2.523782503477686 | 1.2742e-08 | au |
q | 2.136596655974166 | 7.1133e-08 | au |
i | 4.085553617598991 | 3.0569e-06 | deg |
node | 149.2502773959081 | 8.7452e-05 | deg |
peri | 169.6968132967905 | 8.9866e-05 | deg |
M | 81.48855457342512 | 2.2071e-05 | deg |
tp | 2458869.010002506605 (2020-Jan-20.51000251) | 9.0091e-05 | TDB |
period | 1464.455956082696 4.01 | 1.1091e-05 3.037e-08 | d yr |
n | .2458250782515656 | 1.8617e-09 | deg/d |
Q | 2.910968350981205 | 1.4697e-08 | au |
|
| | Orbit Determination Parameters
Additional Information
|